TimeMST,TemperatureF,Dew PointF,Humidity,Sea Level PressureIn,VisibilityMPH,Wind Direction,Wind SpeedMPH,Gust SpeedMPH,PrecipitationIn,Events,Conditions,WindDirDegrees,DateUTC
12:05 AM,21.2,19.4,93,29.61,0.2,NE,4.6,-,N/A,Fog,Light Freezing Fog,40,2013-02-21 07:05:00
12:24 AM,19.4,17.6,93,29.61,0.5,Calm,Calm,-,N/A,Fog,Light Freezing Fog,0,2013-02-21 07:24:00
12:36 AM,19.4,17.6,93,29.61,0.2,SE,3.5,-,N/A,Fog,Light Freezing Fog,140,2013-02-21 07:36:00
12:53 AM,19.9,17.1,89,29.70,0.5,NW,3.5,-,N/A,Fog,Light Freezing Fog,320,2013-02-21 07:53:00
1:24 AM,21.2,17.6,86,29.60,1.2,Calm,Calm,-,N/A,,Overcast,0,2013-02-21 08:24:00
1:30 AM,21.2,19.4,93,29.60,2.0,Calm,Calm,-,N/A,,Overcast,0,2013-02-21 08:30:00
1:34 AM,21.2,19.4,93,29.60,5.0,Calm,Calm,-,N/A,,Overcast,0,2013-02-21 08:34:00
1:49 AM,21.2,17.6,86,29.60,10.0,Calm,Calm,-,N/A,,Overcast,0,2013-02-21 08:49:00
1:53 AM,21.0,18.0,88,29.68,10.0,Calm,Calm,-,N/A,,Overcast,0,2013-02-21 08:53:00
2:42 AM,19.4,17.6,93,29.59,3.0,Calm,Calm,-,N/A,,Overcast,0,2013-02-21 09:42:00
2:46 AM,19.4,17.6,93,29.59,1.5,Calm,Calm,-,N/A,,Overcast,0,2013-02-21 09:46:00
2:48 AM,19.4,17.6,93,29.59,0.8,Calm,Calm,-,N/A,,Overcast,0,2013-02-21 09:48:00
2:53 AM,19.9,18.0,92,29.69,0.2,Calm,Calm,-,N/A,Fog,Light Freezing Fog,0,2013-02-21 09:53:00
3:35 AM,17.6,15.8,93,29.59,0.2,Calm,Calm,-,N/A,Fog,Light Freezing Fog,0,2013-02-21 10:35:00
4:10 AM,17.6,12.2,79,29.59,1.0,Calm,Calm,-,N/A,,Mist,0,2013-02-21 11:10:00
4:12 AM,15.8,12.2,86,29.59,2.5,Calm,Calm,-,N/A,,Mist,0,2013-02-21 11:12:00
4:17 AM,15.8,10.4,79,29.60,1.2,Calm,Calm,-,N/A,,Mist,0,2013-02-21 11:17:00
4:25 AM,12.2,8.6,85,29.60,0.5,Calm,Calm,-,N/A,Fog,Light Freezing Fog,0,2013-02-21 11:25:00
4:31 AM,12.2,8.6,85,29.60,0.2,Calm,Calm,-,N/A,,Haze,0,2013-02-21 11:31:00
4:50 AM,14.0,10.4,86,29.61,0.5,Calm,Calm,-,N/A,Fog,Light Freezing Fog,0,2013-02-21 11:50:00
4:53 AM,15.1,10.9,84,29.73,0.8,Calm,Calm,-,N/A,,Mist,0,2013-02-21 11:53:00
4:56 AM,15.8,10.4,79,29.61,1.2,North,3.5,-,N/A,,Scattered Clouds,360,2013-02-21 11:56:00
4:58 AM,15.8,10.4,79,29.62,2.5,North,3.5,-,N/A,,Partly Cloudy,10,2013-02-21 11:58:00
5:05 AM,14.0,8.6,79,29.62,10.0,NE,4.6,-,N/A,,Clear,40,2013-02-21 12:05:00
5:29 AM,8.6,5.0,85,29.63,2.5,ENE,5.8,-,N/A,,Scattered Clouds,70,2013-02-21 12:29:00
5:31 AM,8.6,5.0,85,29.63,1.2,ENE,5.8,-,N/A,,Scattered Clouds,70,2013-02-21 12:31:00
5:34 AM,8.6,3.2,79,29.63,0.8,ENE,5.8,-,N/A,,Mist,70,2013-02-21 12:34:00
5:42 AM,8.6,3.2,79,29.63,1.8,ENE,4.6,-,N/A,,Mostly Cloudy,70,2013-02-21 12:42:00
5:44 AM,6.8,3.2,85,29.63,3.0,ENE,4.6,-,N/A,,Mostly Cloudy,70,2013-02-21 12:44:00
5:48 AM,6.8,3.2,85,29.64,1.8,East,3.5,-,N/A,,Overcast,90,2013-02-21 12:48:00
5:50 AM,8.6,3.2,79,29.64,0.8,East,3.5,-,N/A,,Mist,80,2013-02-21 12:50:00
5:53 AM,8.1,3.9,83,29.81,0.5,ENE,4.6,-,N/A,Fog,Light Freezing Fog,70,2013-02-21 12:53:00
6:22 AM,12.2,8.6,85,29.64,1.0,Calm,Calm,-,N/A,,Mist,0,2013-02-21 13:22:00
6:35 AM,14.0,10.4,86,29.65,0.2,Calm,Calm,-,N/A,Fog,Light Freezing Fog,0,2013-02-21 13:35:00
6:53 AM,15.1,10.9,84,29.82,0.2,Calm,Calm,-,N/A,Fog,Light Freezing Fog,0,2013-02-21 13:53:00
7:53 AM,18.0,12.9,81,29.87,0.2,NNE,8.1,-,N/A,,Haze,20,2013-02-21 14:53:00
8:53 AM,19.9,17.1,89,29.91,0.2,ENE,4.6,-,N/A,Fog,Light Freezing Fog,60,2013-02-21 15:53:00
9:22 AM,21.2,19.4,93,29.73,0.5,Calm,Calm,-,N/A,Fog,Light Freezing Fog,0,2013-02-21 16:22:00
9:34 AM,23.0,21.2,93,29.73,0.2,South,3.5,-,N/A,Fog,Light Freezing Fog,180,2013-02-21 16:34:00
9:41 AM,21.2,19.4,93,29.73,1.0,Calm,Calm,-,N/A,,Overcast,0,2013-02-21 16:41:00
9:45 AM,21.2,19.4,93,29.73,2.0,Calm,Calm,-,N/A,,Overcast,0,2013-02-21 16:45:00
10:06 AM,24.8,21.2,86,29.74,1.8,Calm,Calm,-,N/A,,Overcast,0,2013-02-21 17:06:00
10:18 AM,26.6,23.0,86,29.74,3.0,Calm,Calm,-,N/A,,Overcast,0,2013-02-21 17:18:00
11:53 AM,30.0,24.1,79,29.84,10.0,NNE,5.8,-,N/A,,Clear,30,2013-02-21 18:53:00
12:53 PM,34.0,21.9,61,29.79,10.0,West,15.0,23.0,N/A,,Partly Cloudy,260,2013-02-21 19:53:00
1:04 PM,33.8,23.0,65,29.71,10.0,WSW,17.3,24.2,N/A,,Partly Cloudy,250,2013-02-21 20:04:00
1:53 PM,35.1,21.0,57,29.78,10.0,West,23.0,26.5,N/A,,Clear,260,2013-02-21 20:53:00
2:53 PM,35.1,21.0,57,29.78,10.0,West,19.6,26.5,N/A,,Overcast,280,2013-02-21 21:53:00
3:53 PM,35.1,21.0,57,29.81,10.0,West,19.6,28.8,N/A,,Scattered Clouds,270,2013-02-21 22:53:00
4:53 PM,34.0,21.0,59,29.83,10.0,West,15.0,25.3,N/A,,Clear,270,2013-02-21 23:53:00
5:53 PM,32.0,21.0,64,29.89,10.0,West,15.0,-,N/A,,Clear,260,2013-02-22 00:53:00
6:53 PM,30.0,21.0,69,29.89,10.0,WSW,17.3,-,N/A,,Partly Cloudy,250,2013-02-22 01:53:00
7:53 PM,30.0,19.9,66,29.90,10.0,West,13.8,-,N/A,,Scattered Clouds,270,2013-02-22 02:53:00
8:53 PM,28.9,19.0,67,29.91,10.0,WSW,11.5,-,N/A,,Clear,240,2013-02-22 03:53:00
9:53 PM,27.0,18.0,69,29.93,10.0,Variable,5.8,-,N/A,,Clear,0,2013-02-22 04:53:00
10:53 PM,23.0,17.1,78,29.84,10.0,Calm,Calm,-,N/A,,Clear,0,2013-02-22 05:53:00
11:53 PM,17.1,14.0,88,29.96,10.0,NE,8.1,-,N/A,,Clear,40,2013-02-22 06:53:00